Time,TemperatureF,DewpointF,PressureIn,WindDirection,WindDirectionDegrees,WindSpeedMPH,WindSpeedGustMPH,Humidity,HourlyPrecipIn,Conditions,Clouds,dailyrainin,SoftwareType,DateUTC
2013-01-24 00:12:00,6.1,-7.0,30.19,NNW,347,0.0,2.0,56,0.00,,,0.00,weatherlink.com 1.10,2013-01-24 05:12:00,
2013-01-24 00:27:00,5.8,-7.0,30.19,WNW,297,0.0,1.0,56,0.00,,,0.00,weatherlink.com 1.10,2013-01-24 05:27:00,
2013-01-24 00:42:00,5.4,-7.0,30.19,WNW,301,0.0,1.0,57,0.00,,,0.00,weatherlink.com 1.10,2013-01-24 05:42:00,
2013-01-24 00:57:00,5.3,-7.0,30.19,WNW,285,0.0,1.0,58,0.00,,,0.00,weatherlink.com 1.10,2013-01-24 05:57:00,
2013-01-24 01:12:00,5.2,-7.0,30.19,NW,316,0.0,2.0,57,0.00,,,0.00,weatherlink.com 1.10,2013-01-24 06:12:00,
2013-01-24 01:27:00,5.1,-7.0,30.19,WNW,292,0.0,1.0,58,0.00,,,0.00,weatherlink.com 1.10,2013-01-24 06:27:00,
2013-01-24 01:42:00,4.9,-7.0,30.19,WNW,284,0.0,1.0,58,0.00,,,0.00,weatherlink.com 1.10,2013-01-24 06:42:00,
2013-01-24 01:57:00,4.6,-7.0,30.19,WNW,294,0.0,1.0,59,0.00,,,0.00,weatherlink.com 1.10,2013-01-24 06:57:00,
2013-01-24 02:12:00,4.1,-7.0,30.19,WNW,294,0.0,1.0,61,0.00,,,0.00,weatherlink.com 1.10,2013-01-24 07:12:00,
2013-01-24 02:27:00,3.9,-7.0,30.19,North,5,0.0,1.0,61,0.00,,,0.00,weatherlink.com 1.10,2013-01-24 07:27:00,
2013-01-24 02:42:00,3.8,-7.0,30.18,North,5,0.0,0.0,61,0.00,,,0.00,weatherlink.com 1.10,2013-01-24 07:42:00,
2013-01-24 02:58:00,3.6,-7.0,30.18,North,6,0.0,0.0,61,0.00,,,0.00,weatherlink.com 1.10,2013-01-24 07:58:00,
2013-01-24 03:13:00,3.0,-7.0,30.17,North,5,0.0,0.0,63,0.00,,,0.00,weatherlink.com 1.10,2013-01-24 08:13:00,
2013-01-24 03:28:00,3.4,-7.0,30.17,NNW,342,1.0,1.0,63,0.00,,,0.00,weatherlink.com 1.10,2013-01-24 08:28:00,
2013-01-24 03:43:00,3.6,-7.0,30.16,North,352,0.0,2.0,62,0.00,,,0.00,weatherlink.com 1.10,2013-01-24 08:43:00,
2013-01-24 03:58:00,3.5,-7.0,30.17,NW,319,0.0,2.0,62,0.00,,,0.00,weatherlink.com 1.10,2013-01-24 08:58:00,
2013-01-24 04:13:00,3.1,-7.0,30.17,North,352,0.0,0.0,63,0.00,,,0.00,weatherlink.com 1.10,2013-01-24 09:13:00,
2013-01-24 04:28:00,2.9,-7.0,30.17,North,352,0.0,0.0,64,0.00,,,0.00,weatherlink.com 1.10,2013-01-24 09:28:00,
2013-01-24 04:43:00,2.5,-7.0,30.18,North,353,0.0,0.0,65,0.00,,,0.00,weatherlink.com 1.10,2013-01-24 09:43:00,
2013-01-24 04:58:00,2.1,-7.0,30.18,WSW,248,0.0,0.0,67,0.00,,,0.00,weatherlink.com 1.10,2013-01-24 09:58:00,
2013-01-24 05:13:00,2.2,-7.0,30.18,WNW,284,0.0,1.0,66,0.00,,,0.00,weatherlink.com 1.10,2013-01-24 10:13:00,
2013-01-24 05:28:00,2.4,-7.0,30.17,NNW,329,0.0,1.0,66,0.00,,,0.00,weatherlink.com 1.10,2013-01-24 10:28:00,
2013-01-24 05:43:00,2.3,-7.0,30.18,NNW,329,0.0,1.0,66,0.00,,,0.00,weatherlink.com 1.10,2013-01-24 10:43:00,
2013-01-24 05:58:00,2.1,-6.0,30.18,NNW,329,0.0,0.0,68,0.00,,,0.00,weatherlink.com 1.10,2013-01-24 10:58:00,
2013-01-24 06:13:00,1.7,-6.0,30.18,NNW,329,0.0,0.0,70,0.00,,,0.00,weatherlink.com 1.10,2013-01-24 11:13:00,
2013-01-24 06:29:00,1.0,-7.0,30.19,NNW,329,0.0,0.0,70,0.00,,,0.00,weatherlink.com 1.10,2013-01-24 11:29:00,
2013-01-24 06:44:00,0.6,-6.0,30.19,NNW,329,0.0,0.0,72,0.00,,,0.00,weatherlink.com 1.10,2013-01-24 11:44:00,
2013-01-24 06:59:00,1.1,-6.0,30.19,NW,307,0.0,1.0,72,0.00,,,0.00,weatherlink.com 1.10,2013-01-24 11:59:00,
2013-01-24 07:14:00,1.7,-6.0,30.20,NNE,12,0.0,0.0,70,0.00,,,0.00,weatherlink.com 1.10,2013-01-24 12:14:00,
2013-01-24 07:29:00,1.9,-6.0,30.20,NNE,12,0.0,0.0,69,0.00,,,0.00,weatherlink.com 1.10,2013-01-24 12:29:00,
2013-01-24 07:44:00,2.4,-6.0,30.21,NW,305,0.0,1.0,69,0.00,,,0.00,weatherlink.com 1.10,2013-01-24 12:44:00,
2013-01-24 07:59:00,3.0,-5.0,30.21,North,5,0.0,1.0,69,0.00,,,0.00,weatherlink.com 1.10,2013-01-24 12:59:00,
2013-01-24 08:14:00,3.6,-5.0,30.21,WNW,291,0.0,1.0,69,0.00,,,0.00,weatherlink.com 1.10,2013-01-24 13:14:00,
2013-01-24 08:29:00,4.4,-4.0,30.21,NW,315,0.0,3.0,68,0.00,,,0.00,weatherlink.com 1.10,2013-01-24 13:29:00,
2013-01-24 08:44:00,5.6,-4.0,30.21,North,359,2.0,4.0,65,0.00,,,0.00,weatherlink.com 1.10,2013-01-24 13:44:00,
2013-01-24 08:59:00,6.7,-6.0,30.22,NW,314,0.0,4.0,57,0.00,,,0.00,weatherlink.com 1.10,2013-01-24 13:59:00,
2013-01-24 09:14:00,7.5,-5.0,30.21,WNW,291,1.0,4.0,56,0.00,,,0.00,weatherlink.com 1.10,2013-01-24 14:14:00,
2013-01-24 09:29:00,7.8,-6.0,30.22,NW,305,1.0,8.0,54,0.00,,,0.00,weatherlink.com 1.10,2013-01-24 14:29:00,
2013-01-24 09:45:00,8.7,-5.0,30.22,WNW,287,1.0,4.0,53,0.00,,,0.00,weatherlink.com 1.10,2013-01-24 14:45:00,
2013-01-24 10:00:00,9.2,-6.0,30.21,WNW,300,4.0,10.0,51,0.00,,,0.00,weatherlink.com 1.10,2013-01-24 15:00:00,
2013-01-24 10:15:00,9.8,-6.0,30.21,NW,314,1.0,9.0,49,0.00,,,0.00,weatherlink.com 1.10,2013-01-24 15:15:00,
2013-01-24 10:30:00,10.4,-6.0,30.21,NNW,339,3.0,11.0,48,0.00,,,0.00,weatherlink.com 1.10,2013-01-24 15:30:00,
2013-01-24 10:45:00,11.5,-5.0,30.21,NNW,328,3.0,9.0,47,0.00,,,0.00,weatherlink.com 1.10,2013-01-24 15:45:00,
2013-01-24 11:00:00,11.9,-7.0,30.21,West,276,2.0,11.0,43,0.00,,,0.00,weatherlink.com 1.10,2013-01-24 16:00:00,
2013-01-24 11:15:00,12.4,-6.0,30.20,NNW,343,7.0,10.0,43,0.00,,,0.00,weatherlink.com 1.10,2013-01-24 16:15:00,
2013-01-24 11:30:00,13.5,-6.0,30.19,WNW,302,0.0,10.0,41,0.00,,,0.00,weatherlink.com 1.10,2013-01-24 16:30:00,
2013-01-24 11:45:00,14.0,-7.0,30.19,NNW,347,8.0,14.0,39,0.00,,,0.00,weatherlink.com 1.10,2013-01-24 16:45:00,
2013-01-24 12:00:00,14.7,-7.0,30.18,NNW,340,9.0,12.0,37,0.00,,,0.00,weatherlink.com 1.10,2013-01-24 17:00:00,
2013-01-24 12:15:00,16.1,-6.0,30.18,West,276,5.0,8.0,37,0.00,,,0.00,weatherlink.com 1.10,2013-01-24 17:15:00,
2013-01-24 12:30:00,16.3,-7.0,30.18,NW,315,3.0,12.0,35,0.00,,,0.00,weatherlink.com 1.10,2013-01-24 17:30:00,
2013-01-24 12:45:00,16.5,-7.0,30.18,NNW,328,2.0,13.0,34,0.00,,,0.00,weatherlink.com 1.10,2013-01-24 17:45:00,
2013-01-24 13:01:00,16.6,-9.0,30.18,NNW,332,4.0,16.0,32,0.00,,,0.00,weatherlink.com 1.10,2013-01-24 18:01:00,
2013-01-24 13:16:00,17.0,-8.0,30.18,NW,315,9.0,14.0,32,0.00,,,0.00,weatherlink.com 1.10,2013-01-24 18:16:00,
2013-01-24 13:31:00,17.5,-7.0,30.18,NNW,333,5.0,12.0,34,0.00,,,0.00,weatherlink.com 1.10,2013-01-24 18:31:00,
2013-01-24 13:46:00,17.2,-8.0,30.18,NW,321,5.0,15.0,32,0.00,,,0.00,weatherlink.com 1.10,2013-01-24 18:46:00,
2013-01-24 14:01:00,17.3,-7.0,30.19,North,354,5.0,12.0,33,0.00,,,0.00,weatherlink.com 1.10,2013-01-24 19:01:00,
2013-01-24 14:16:00,18.1,-7.0,30.19,WNW,300,2.0,13.0,33,0.00,,,0.00,weatherlink.com 1.10,2013-01-24 19:16:00,
2013-01-24 14:31:00,18.2,-7.0,30.19,NNW,345,5.0,9.0,33,0.00,,,0.00,weatherlink.com 1.10,2013-01-24 19:31:00,
2013-01-24 14:46:00,18.4,-7.0,30.20,NW,305,6.0,12.0,32,0.00,,,0.00,weatherlink.com 1.10,2013-01-24 19:46:00,
2013-01-24 15:01:00,18.7,-6.0,30.20,NNW,332,2.0,9.0,33,0.00,,,0.00,weatherlink.com 1.10,2013-01-24 20:01:00,
2013-01-24 15:16:00,19.2,-5.0,30.20,NW,321,0.0,10.0,34,0.00,,,0.00,weatherlink.com 1.10,2013-01-24 20:16:00,
2013-01-24 15:31:00,19.0,-6.0,30.20,WNW,298,12.0,13.0,32,0.00,,,0.00,weatherlink.com 1.10,2013-01-24 20:31:00,
2013-01-24 15:46:00,18.6,-7.0,30.20,WNW,296,2.0,12.0,32,0.00,,,0.00,weatherlink.com 1.10,2013-01-24 20:46:00,
2013-01-24 16:01:00,18.2,-8.0,30.21,WNW,294,6.0,12.0,31,0.00,,,0.00,weatherlink.com 1.10,2013-01-24 21:01:00,
2013-01-24 16:16:00,17.4,-8.0,30.22,WNW,300,2.0,14.0,32,0.00,,,0.00,weatherlink.com 1.10,2013-01-24 21:16:00,
2013-01-24 16:32:00,16.9,-8.0,30.22,NW,315,9.0,11.0,32,0.00,,,0.00,weatherlink.com 1.10,2013-01-24 21:32:00,
2013-01-24 16:47:00,16.3,-9.0,30.23,NW,312,3.0,11.0,32,0.00,,,0.00,weatherlink.com 1.10,2013-01-24 21:47:00,
2013-01-24 17:17:00,15.6,-9.0,30.24,WNW,302,3.0,11.0,33,0.00,,,0.00,weatherlink.com 1.10,2013-01-24 22:17:00,
2013-01-24 17:32:00,15.4,-9.0,30.25,WNW,301,2.0,15.0,33,0.00,,,0.00,weatherlink.com 1.10,2013-01-24 22:32:00,
2013-01-24 17:47:00,15.2,-8.0,30.26,NNW,346,2.0,10.0,35,0.00,,,0.00,weatherlink.com 1.10,2013-01-24 22:47:00,
2013-01-24 18:02:00,15.1,-9.0,30.26,NNE,27,5.0,13.0,33,0.00,,,0.00,weatherlink.com 1.10,2013-01-24 23:02:00,
2013-01-24 18:17:00,14.8,-10.0,30.26,NNE,18,2.0,13.0,33,0.00,,,0.00,weatherlink.com 1.10,2013-01-24 23:17:00,
2013-01-24 18:32:00,14.7,-10.0,30.26,NW,311,4.0,19.0,33,0.00,,,0.00,weatherlink.com 1.10,2013-01-24 23:32:00,
2013-01-24 18:47:00,14.4,-10.0,30.27,NW,318,2.0,16.0,33,0.00,,,0.00,weatherlink.com 1.10,2013-01-24 23:47:00,
2013-01-24 19:02:00,14.1,-9.0,30.27,NW,311,17.0,17.0,35,0.00,,,0.00,weatherlink.com 1.10,2013-01-25 00:02:00,
2013-01-24 19:17:00,13.9,-9.0,30.28,NW,321,8.0,18.0,35,0.00,,,0.00,weatherlink.com 1.10,2013-01-25 00:17:00,
2013-01-24 19:32:00,13.6,-9.0,30.26,NW,305,8.0,20.0,36,0.00,,,0.00,weatherlink.com 1.10,2013-01-25 00:32:00,
2013-01-24 19:48:00,13.3,-9.0,30.27,NW,319,1.0,15.0,37,0.00,,,0.00,weatherlink.com 1.10,2013-01-25 00:48:00,
2013-01-24 20:03:00,13.1,-8.0,30.29,WNW,292,3.0,12.0,39,0.00,,,0.00,weatherlink.com 1.10,2013-01-25 01:03:00,
2013-01-24 20:18:00,13.0,-8.0,30.30,NNW,331,4.0,11.0,39,0.00,,,0.00,weatherlink.com 1.10,2013-01-25 01:18:00,
2013-01-24 20:33:00,12.8,-6.0,30.30,NNW,336,2.0,16.0,42,0.00,,,0.00,weatherlink.com 1.10,2013-01-25 01:33:00,
2013-01-24 20:48:00,12.6,-6.0,30.31,WNW,293,2.0,14.0,44,0.00,,,0.00,weatherlink.com 1.10,2013-01-25 01:48:00,
2013-01-24 21:03:00,12.5,-4.0,30.31,NW,321,6.0,12.0,47,0.00,,,0.00,weatherlink.com 1.10,2013-01-25 02:03:00,
2013-01-24 21:18:00,12.2,-3.0,30.32,NW,321,2.0,9.0,50,0.00,,,0.00,weatherlink.com 1.10,2013-01-25 02:18:00,
2013-01-24 21:33:00,12.1,-2.0,30.32,WNW,290,4.0,9.0,53,0.00,,,0.00,weatherlink.com 1.10,2013-01-25 02:33:00,
2013-01-24 21:48:00,12.1,-1.0,30.31,WNW,291,4.0,11.0,55,0.00,,,0.00,weatherlink.com 1.10,2013-01-25 02:48:00,
2013-01-24 22:03:00,12.2,-1.0,30.30,WNW,294,11.0,12.0,56,0.00,,,0.00,weatherlink.com 1.10,2013-01-25 03:03:00,
2013-01-24 22:18:00,12.4,0.0,30.30,WNW,291,11.0,17.0,57,0.00,,,0.00,weatherlink.com 1.10,2013-01-25 03:18:00,
2013-01-24 22:33:00,12.6,0.0,30.30,NW,316,2.0,16.0,57,0.00,,,0.00,weatherlink.com 1.10,2013-01-25 03:33:00,
2013-01-24 22:48:00,12.5,0.0,30.31,NNW,333,3.0,13.0,57,0.00,,,0.00,weatherlink.com 1.10,2013-01-25 03:48:00,
2013-01-24 23:04:00,12.5,0.0,30.32,NW,305,5.0,11.0,57,0.00,,,0.00,weatherlink.com 1.10,2013-01-25 04:04:00,
2013-01-24 23:19:00,12.5,0.0,30.33,NW,309,1.0,10.0,58,0.00,,,0.00,weatherlink.com 1.10,2013-01-25 04:19:00,
2013-01-24 23:34:00,12.4,0.0,30.32,WNW,301,4.0,8.0,58,0.00,,,0.00,weatherlink.com 1.10,2013-01-25 04:34:00,
2013-01-24 23:49:00,12.4,0.0,30.34,NW,315,3.0,12.0,58,0.00,,,0.00,weatherlink.com 1.10,2013-01-25 04:49:00,